CW6427 Weather Reports


Display with metric or nautical units.
time (UTC)temp
F
wind
direction
speed
MPH
gust
MPH
rain 1hr
in
rain 24hr
in
rain mn
in
humidity
%
barometer
mb
20260505171853 71 178 8.0 21.0 0.00 0.07 0.07 58 1007.2
20260505170853 71 183 7.0 24.0 0.00 0.07 0.07 57 1007.3
20260505165852 71 210 16.0 23.0 0.00 0.07 0.07 58 1007.1
20260505164852 71 219 14.0 27.0 0.00 0.07 0.07 56 1006.9
20260505163852 72 260 9.0 20.0 0.00 0.07 0.07 57 1006.8
20260505162852 71 222 7.0 22.0 0.00 0.07 0.07 60 1006.5
20260505161852 71 229 6.0 21.0 0.00 0.07 0.07 58 1006.5
20260505160852 71 312 10.0 24.0 0.00 0.07 0.07 58 1006.6
20260505152851 72 221 19.0 26.0 0.00 0.07 0.07 58 1007.2
20260505150851 71 190 12.0 30.0 0.00 0.07 0.07 60 1007.1
20260505124848 64 169 19.0 24.0 0.00 0.07 0.07 71 1007.3
20260505123848 64 224 14.0 19.0 0.00 0.07 0.07 70 1007.3
20260505122848 64 206 13.0 24.0 0.00 0.07 0.07 72 1007.4
20260505121848 63 203 14.0 23.0 0.00 0.07 0.07 74 1007.3
20260505120848 62 192 10.0 20.0 0.00 0.07 0.07 74 1007.2
20260505115847 62 187 12.0 22.0 0.00 0.07 0.07 76 1007.3
20260505114848 61 179 13.0 20.0 0.00 0.07 0.07 76 1007.3
20260505113847 61 196 15.0 21.0 0.00 0.07 0.07 75 1007.4
20260505112847 61 185 11.0 17.0 0.00 0.07 0.07 75 1007.3
20260505110847 60 186 9.0 17.0 0.01 0.07 0.07 77 1006.9
20260505101845 59 194 14.0 16.0 0.00 0.06 0.06 78 1006.8
20260505100846 58 188 8.0 15.0 0.00 0.06 0.06 79 1006.8
20260505095845 57 184 4.0 10.0 0.00 0.06 0.06 82 1006.8
20260505094845 56 184 8.0 9.0 0.00 0.06 0.06 84 1006.7
20260505093845 55 169 6.0 9.0 0.00 0.06 0.06 85 1006.6
20260505092845 55 175 6.0 9.0 0.00 0.06 0.06 86 1006.7
20260505091845 55 167 6.0 9.0 0.00 0.06 0.06 86 1006.8
20260505090844 55 184 8.0 9.0 0.01 0.06 0.06 87 1006.8
20260505085844 54 182 5.0 7.0 0.02 0.06 0.06 91 1006.8
20260505084844 54 166 0.0 3.0 0.02 0.06 0.06 91 1006.8
20260505083844 55 166 3.0 4.0 0.02 0.06 0.06 91 1006.8
20260505082844 56 166 3.0 7.0 0.02 0.06 0.06 88 1006.9
20260505080844 58 192 10.0 27.0 0.02 0.05 0.05 82 1007.4
20260505075843 55 221 9.0 9.0 0.01 0.04 0.04 87 1007.2
20260505074843 54 200 3.0 4.0 0.01 0.04 0.04 88 1007.0
20260505072843 54 178 2.0 3.0 0.02 0.04 0.04 91 1007.2
20260505071843 54 178 1.0 3.0 0.03 0.03 0.03 91 1007.2
20260505070843 55 180 2.0 4.0 0.03 0.03 0.03 91 1007.3
20260505065843 55 209 0.0 2.0 0.03 0.03 0.03 90 1007.4
20260505064842 56 209 1.0 6.0 0.03 0.03 0.03 88 1007.4
20260505063842 57 131 5.0 7.0 0.03 0.03 0.03 83 1007.5
20260505062842 58 195 6.0 13.0 0.02 0.02 0.02 80 1008.0
20260505061842 59 251 2.0 10.0 0.00 0.00 0.00 72 1008.3
20260505060842 60 197 6.0 9.0 0.00 0.00 0.00 70 1007.8
20260505055841 60 211 5.0 11.0 0.00 0.00 0.00 70 1007.5
20260505054841 60 196 9.0 16.0 0.00 0.00 0.00 69 1007.2
20260505053841 62 208 11.0 14.0 0.00 0.00 0.00 63 1007.6
20260505052841 62 177 6.0 14.0 0.00 0.00 0.00 62 1007.3
20260505051841 62 186 7.0 13.0 0.00 0.00 0.00 62 1007.3
20260505050840 62 183 6.0 15.0 0.00 0.00 0.00 62 1007.3
20260505040910 62 177 13.0 15.0 0.00 0.00 0.00 60 1007.4
20260505035839 61 190 8.0 14.0 0.00 0.00 0.00 61 1007.1
20260505034909 61 199 9.0 13.0 0.00 0.00 0.00 60 1007.1
20260505033839 61 188 8.0 12.0 0.00 0.00 0.00 60 1007.1
20260505031908 62 192 8.0 13.0 0.00 0.00 0.00 58 1007.3
20260505030908 62 194 9.0 15.0 0.00 0.00 0.00 57 1007.2
20260505025908 63 192 7.0 14.0 0.00 0.00 0.00 57 1007.3
20260505023838 62 184 10.0 13.0 0.00 0.00 0.00 57 1007.3
20260505022908 62 186 7.0 14.0 0.00 0.00 0.00 57 1007.3
20260505015907 62 210 7.0 10.0 0.00 0.00 0.00 57 1007.1
20260505014907 62 191 7.0 9.0 0.00 0.00 0.00 57 1007.1
20260505013907 62 174 5.0 15.0 0.00 0.00 0.00 57 1007.1
20260505012907 63 190 7.0 10.0 0.00 0.00 0.00 55 1007.2
20260505011907 63 207 7.0 9.0 0.00 0.00 0.00 54 1007.2
20260505010906 63 209 6.0 9.0 0.00 0.00 0.00 52 1007.2
20260505005906 63 229 4.0 7.0 0.00 0.00 0.00 52 1007.0
20260505004906 63 222 3.0 6.0 0.00 0.00 0.00 49 1006.8
20260505003906 64 209 2.0 4.0 0.00 0.00 0.00 48 1006.9
20260505002906 64 229 2.0 4.0 0.00 0.00 0.00 47 1006.8
20260505000905 64 222 2.0 6.0 0.00 0.00 0.00 48 1006.7
20260504235905 65 223 3.0 4.0 0.00 0.00 0.00 46 1006.6
20260504234905 66 213 1.0 5.0 0.00 0.00 0.00 45 1006.5
20260504233904 66 225 4.0 5.0 0.00 0.00 0.00 45 1006.5
20260504231904 68 221 4.0 9.0 0.00 0.00 0.00 43 1006.5
20260504225904 69 199 7.0 12.0 0.00 0.00 0.00 41 1006.6
20260504224904 70 198 8.0 14.0 0.00 0.00 0.00 40 1006.7
20260504223903 70 172 14.0 17.0 0.00 0.00 0.00 38 1006.8
20260504222903 70 195 4.0 9.0 0.00 0.00 0.00 39 1006.8
20260504221903 70 221 6.0 13.0 0.00 0.00 0.00 38 1006.7
20260504220903 70 192 7.0 14.0 0.00 0.00 0.00 39 1006.7
20260504215903 70 221 6.0 17.0 0.00 0.00 0.00 38 1006.8
20260504214903 70 205 5.0 15.0 0.00 0.00 0.00 40 1006.9
20260504213903 70 187 12.0 24.0 0.00 0.00 0.00 39 1006.9
20260504212903 70 213 14.0 19.0 0.00 0.00 0.00 39 1006.9
20260504204902 70 200 11.0 20.0 0.00 0.00 0.00 40 1006.9
20260504203902 70 274 7.0 23.0 0.00 0.00 0.00 43 1007.2
20260504201901 70 253 2.0 13.0 0.00 0.00 0.00 41 1007.3
20260504200902 70 215 10.0 18.0 0.00 0.00 0.00 42 1007.5
20260504194901 69 223 10.0 24.0 0.00 0.00 0.00 45 1007.8
20260504193901 69 229 12.0 23.0 0.00 0.00 0.00 44 1007.8
20260504191900 68 159 9.0 19.0 0.00 0.00 0.00 46 1007.8
20260504185901 67 188 12.0 19.0 0.00 0.00 0.00 49 1008.3
20260504184900 67 171 16.0 17.0 0.00 0.00 0.00 50 1008.6
20260504183859 68 191 9.0 18.0 0.00 0.00 0.00 50 1008.8
20260504182900 67 293 8.0 20.0 0.00 0.00 0.00 50 1008.7
20260504181859 68 225 7.0 20.0 0.00 0.00 0.00 50 1008.9
20260504180859 67 219 19.0 21.0 0.00 0.00 0.00 51 1008.6
20260504175859 66 201 15.0 20.0 0.00 0.00 0.00 52 1008.8
20260504174859 66 217 11.0 20.0 0.00 0.00 0.00 52 1008.7
20260504173859 66 235 11.0 21.0 0.00 0.00 0.00 52 1008.8